星链-31846 (STARLINK-31846 )

导读

STARLINK-31846是美国太空探索技术公司Starlink星链互联网卫星星座中的一员,于2024年6月24日发射入轨。星链项目旨在构建全球卫星互联网络,为全球偏远地区、海洋航空等场景提供低时延宽带互联网服务,该卫星加入星座后将进一步扩展星链的全球覆盖能力与服务容量。

Basic Information
目录编号:
60126
目录名称:
STARLINK-31846
国际标识:
2024-118P
轨道中心:
EARTH
卫星名称:
星链-31846
卫星全名:
星链-31846 (STARLINK-31846 )
卫星状态:
在轨 (已飞行810 天)
发射日期:
2024-06-24 UTC
国别 :
美国 (US)
星等 :
--
This satellite is enrolled in the Space Conjunction Data Service (SCDS) and the current flight risk assessment level is: No High Risk
Orbit Information
数据来源 国际轨道数据 AOE轨道数据
星历时间 2026-09-11T07:49:42+0800
1天前
查看轨道信息
2026-09-10T23:00:00+0800
1天前
查看轨道信息
半长轴 6848.88km 6848.886km
偏心率 0.0001136 0.0001136
轨道倾角 53.160° 53.158°
近地点辐角 76.780° 79.341°
升交点赤经 244.834° 246.551°
平近点角 283.333° 51.280°
近地点 469.964km 469.97km
远地点 471.522km 471.528km
周期 94.013分钟 94.013分钟
每日圈数 15.31699 15.31697
Detailed Information
固有亮度:
5
最大亮度:
1.5
卫星平台:
Starlink v2.0 mini
覆盖范围:
全球
运营商:
太空探索技术公司
运营商所在国:
美国
制造商(研发单位):
太空探索技术公司
制造商所在国:
美国
使用方式:
暂无
Satellite Introduction
星链(Starlink)计划是由太空探索技术公司(SpaceX)提出的一个巨型低轨卫星互联网星座项目,计划在2019年至2024年间在太空搭建由约1.2万颗卫星组成的“星链”网络,其中1584颗将部署在地球上空550千米处的近地轨道,并从2020年开始工作。该卫星仍在工作。
2D Orbit Map
3D Orbit Map
Orbit Altitude Analysis Chart
Orbit Inclination Analysis Chart
Orbit Comprehensive Analysis Chart
View Comprehensive Chart
Miss Distance Evolution Trend with All Objects
Collision Probability Evolution Trend with All Objects